Theta_e
323 330 337 343 349 351 347 345 345 343 342 341 339 338 338 336 335 335 335 336 336 337 339 339 341 342 341 342 343 347 351 351
322 333 337 341 347 347 346 345 343 342 341 340 337 339 337 337 335 335 335 335 335 335 336 339 340 342 344 345 343 346 350 349
323 335 338 339 343 344 343 344 341 338 336 337 337 336 338 337 335 335 335 335 335 334 334 337 340 339 344 346 344 346 348 349
322 323 328 329 328 327 329 331 331 332 333 333 333 334 335 335 335 335 335 335 335 334 334 335 339 340 340 343 344 346 347 348
317 318 321 322 324 327 327 327 328 329 330 330 331 331 333 333 333 334 335 334 334 334 334 335 338 339 339 341 342 345 347 348
319 321 323 323 325 325 325 325 326 327 328 328 328 328 329 331 331 332 332 333 333 334 335 335 337 339 339 340 341 344 346 350
319 321 323 323 323 325 324 326 327 326 326 326 327 327 328 330 329 326 330 332 332 334 334 335 336 337 339 340 338 342 346 348
320 322 322 323 323 325 324 326 326 325 322 323 324 326 327 328 330 327 327 329 335 333 334 335 336 339 340 339 339 341 347 347
320 321 322 322 324 326 325 326 327 324 325 325 324 327 326 325 327 324 326 329 332 334 333 334 337 340 340 340 340 342 344 346
320 321 322 323 325 326 327 326 327 327 325 326 324 326 323 325 325 325 325 328 329 329 331 333 336 336 337 338 339 343 342 345
321 322 323 325 326 327 326 327 328 328 327 324 323 327 328 327 328 327 325 325 327 329 332 336 337 336 335 337 338 342 341 345
322 323 323 325 328 327 327 327 328 329 328 327 328 329 328 329 328 328 329 328 328 332 334 335 334 335 334 338 336 340 343 343
323 323 324 325 328 328 328 328 328 330 329 329 330 331 330 331 330 330 329 331 330 331 332 332 330 330 332 334 334 338 342 343
323 323 323 325 327 328 329 329 329 331 330 330 331 331 331 332 332 331 329 330 332 330 331 332 332 331 331 333 333 339 339 341
324 323 323 324 325 325 327 329 329 332 330 331 331 330 330 333 331 332 330 328 329 330 330 331 332 332 333 333 334 333 334 336
325 325 324 325 326 325 326 325 326 326 326 330 329 325 326 329 329 332 332 332 332 327 329 332 332 332 333 336 329 328 329 331
322 323 326 323 324 322 324 327 323 327 328 328 328 329 329 327 329 330 330 329 331 330 330 332 333 332 332 335 326 324 319 323
320 320 324 325 324 323 325 328 329 330 328 326 326 325 325 327 328 331 330 332 332 333 332 333 335 332 326 332 335 328 319 316
321 321 321 323 325 323 327 330 329 327 324 326 327 329 330 328 328 328 328 328 328 331 333 333 336 332 329 326 333 330 329 328
Wind_Speed
4 5 7 9 10 13 14 13 13 14 16 18 19 19 19 18 15 15 14 13 10 10 11 14 13 12 10 8 6 6 9 13
4 4 4 6 9 11 12 14 15 15 17 19 21 21 21 19 17 16 16 14 13 11 11 13 13 13 10 8 7 7 9 11
2 1 2 3 6 10 13 14 14 14 14 16 18 20 20 20 18 19 18 16 15 13 12 13 15 9 11 9 7 5 10 14
3 1 1 3 4 5 7 9 11 13 13 15 15 15 17 21 18 18 19 17 15 13 12 13 14 11 11 9 7 5 12 15
0 3 5 4 5 5 6 10 12 12 13 14 14 13 13 13 15 18 17 15 15 14 13 13 13 11 12 9 8 5 13 17
3 5 5 5 5 5 6 6 9 11 11 12 10 9 10 6 6 9 13 17 16 14 12 13 12 12 12 10 9 7 14 8
5 5 4 6 5 6 5 6 6 6 6 7 8 9 7 7 5 6 9 14 15 14 13 12 12 12 11 7 7 8 7 10
5 6 6 5 5 6 5 4 3 4 4 4 6 7 7 6 6 4 6 7 7 11 6 5 7 7 10 8 6 7 9 10
7 9 7 6 5 5 4 4 5 4 4 4 4 6 5 4 6 4 5 7 7 6 5 4 4 8 10 9 8 9 11 9
8 8 7 6 5 5 6 4 5 5 5 5 4 4 3 5 4 5 5 6 6 5 5 4 5 7 9 9 9 9 11 10
7 7 7 6 5 6 6 6 5 5 4 4 5 5 5 5 3 3 6 6 6 6 4 4 5 7 8 8 8 10 9 10
6 6 6 6 5 5 6 5 5 5 5 5 4 5 6 6 5 5 5 6 6 5 5 4 7 7 8 7 7 8 8 10
6 6 5 5 5 5 6 5 5 4 5 5 4 4 6 7 7 6 6 5 5 5 5 6 8 8 8 7 5 6 7 9
5 6 5 6 6 7 7 5 5 5 3 3 3 4 5 5 7 8 6 5 7 5 6 7 7 8 8 6 6 6 7 7
5 5 5 5 5 7 6 4 4 1 2 2 2 3 4 2 2 7 5 6 7 6 7 7 8 8 8 7 8 7 7 7
6 6 5 5 5 5 5 4 3 5 3 2 4 4 5 3 4 7 7 8 7 7 6 9 9 11 7 8 7 7 7 8
5 5 5 4 5 5 4 3 2 3 1 3 4 5 8 4 4 6 7 6 6 7 9 11 11 8 6 9 7 6 5 6
4 3 4 4 5 5 7 5 3 3 2 3 3 3 4 4 5 5 7 7 7 6 8 10 11 12 8 7 13 4 4 4
4 1 2 3 5 4 5 5 5 5 4 3 2 2 5 4 7 7 8 7 7 6 9 8 8 8 7 9 4 5 5 9
Wind_Direction
256 268 254 249 241 237 248 257 259 257 260 259 262 264 259 256 243 239 244 245 246 260 263 262 247 213 225 220 240 282 201 181
257 288 270 255 250 257 263 264 266 269 271 270 271 270 267 256 245 234 235 238 242 246 261 263 258 237 209 217 216 267 207 174
198 244 264 265 290 278 273 279 292 301 307 304 295 275 268 266 243 231 232 234 239 244 248 264 262 226 232 200 197 249 195 160
102 193 278 286 307 322 326 321 317 308 306 299 293 291 280 260 248 232 224 231 238 236 245 253 263 244 242 205 193 221 190 175
30 313 305 299 307 311 327 328 317 312 304 299 290 293 306 286 254 239 228 232 234 237 245 248 260 242 227 204 205 205 191 173
269 283 293 274 281 303 310 303 308 305 303 311 306 305 305 289 271 250 239 235 231 240 248 251 254 239 222 199 201 207 191 175
292 292 257 284 279 300 306 311 302 308 312 312 307 307 302 288 277 270 262 250 239 237 251 250 243 241 209 192 197 201 184 183
314 299 299 316 301 306 307 299 302 324 299 287 289 286 284 280 271 250 252 239 229 240 245 248 241 224 196 189 193 181 185 184
318 308 318 305 294 308 296 292 308 310 294 304 300 290 295 291 277 253 226 222 195 202 220 238 223 199 190 182 187 183 183 186
300 306 306 303 304 311 297 299 311 312 312 316 290 268 253 265 258 223 214 201 186 190 215 212 205 181 181 181 186 184 181 186
300 305 320 323 298 313 308 308 314 309 297 273 257 263 259 270 280 216 190 191 187 188 180 173 168 160 174 178 190 185 185 177
301 315 326 320 307 323 317 315 315 301 288 266 249 236 243 249 252 242 207 195 187 178 164 150 148 157 168 175 194 183 196 169
290 312 319 321 315 328 315 313 307 301 286 276 278 270 248 233 220 215 215 195 173 174 169 159 155 160 164 170 184 186 186 169
285 304 313 309 324 319 311 305 298 300 319 339 302 280 272 262 240 216 204 181 175 168 172 160 156 163 157 152 180 180 157 148
274 292 302 300 323 323 309 301 282 250 44 320 324 345 310 319 202 184 170 168 161 172 162 164 158 158 159 161 159 135 134 125
265 280 310 317 349 347 346 343 334 360 2 332 41 5 335 280 143 157 152 157 156 156 171 166 158 150 149 143 121 118 111 122
276 288 286 316 339 338 326 323 298 334 347 6 16 357 5 145 132 175 162 158 160 159 165 167 163 145 141 144 138 125 124 111
259 287 302 314 326 342 343 348 312 159 80 50 34 3 356 58 98 139 145 156 154 160 169 165 159 150 143 150 151 115 137 122
232 248 303 357 344 8 354 25 28 48 55 56 21 50 64 67 67 80 82 96 100 124 134 136 139 123 124 136 117 56 110 128